Reflectivity
15 15 18 10 17 16 16 12 18 9 14 -10 15 19 -9 16 21 31 34 34 32 33 -2 -13 8 10 4 14 18 25 16 23 21 18 17 14 11 2 -1 -11 -20 -7 4 8 6 14 4 -20 -20 -20 -20 -20 -20 -20
8 5 -17 9 -20 9 13 20 39 16 7 -19 22 -19 -12 21 40 36 35 30 37 27 18 5 2 -7 11 16 17 16 1 -6 -18 -19 -20 -20 -20 -20 -20 -20 -20 -3 1 -4 3 -4 -19 -20 -20 -20 -20 -20 -20 -20
1 -9 -20 11 -12 9 5 11 29 18 26 23 25 5 31 25 6 24 22 18 34 27 23 22 21 21 16 22 18 17 -16 2 -14 -9 2 16 11 -19 -20 -20 -20 -20 -20 -20 -20 -20 -20 -20 -20 -20 -19 -19 -20 -20
-8 -16 -18 10 -1 11 2 4 7 26 36 28 33 40 15 19 22 22 14 22 32 21 17 23 21 18 21 19 20 15 -2 10 1 15 20 13 -20 -20 -20 -20 -20 -18 -11 -12 -20 -20 -20 -20 -20 -20 -20 -19 -20 -20
-20 8 5 12 9 9 1 -0 -18 3 15 17 23 25 15 16 20 34 37 27 24 19 20 18 18 20 20 19 19 19 28 13 1 22 22 16 -4 -20 -20 -20 14 1 -20 -19 -20 -20 -20 -20 -20 -20 -20 -20 -20 -20
-5 5 -13 7 16 12 9 -1 -5 -17 -20 -9 -11 -2 -20 -20 -19 15 19 29 28 29 20 22 21 20 19 17 18 20 21 22 21 20 20 16 11 0 9 11 -0 -12 -12 -20 -20 -20 -20 -19 -19 -20 -19 -14 -15 -19
-20 -17 5 -20 2 3 23 -3 -20 -20 -20 -20 -20 -20 -20 -20 -20 -20 7 16 20 21 18 14 16 17 15 19 20 18 19 21 21 22 20 17 12 10 16 3 -20 -20 -16 -7 -9 -4 -8 -19 -16 -17 -19 -7 -0 -3
-20 -20 -7 -12 -20 -20 1 3 -18 -20 -20 -20 -20 -20 -20 -20 -20 -20 -20 -17 7 15 15 10 12 10 13 13 16 16 13 14 16 19 16 16 16 17 18 11 -14 -18 -10 -3 4 3 -0 -1 -6 -13 -7 -8 -17 -19
-20 -20 -20 -20 -20 -20 -20 -20 -20 -20 -20 -20 -20 -20 -20 -20 -20 -20 -20 -20 -20 -16 -10 2 8 3 9 12 11 8 -6 7 10 12 12 11 15 14 9 3 1 1 2 0 4 4 4 1 -4 1 3 -4 -5 -9
-20 -20 -20 -20 -20 -20 -20 -20 -20 -20 -20 -20 -20 -20 -20 -20 -20 -20 -20 -20 -20 -20 -20 -20 -20 -15 -14 -9 2 -9 -4 0 1 0 4 8 9 8 5 2 -8 -20 -20 -19 -12 -5 -3 -7 -8 -3 3 3 1 2
-20 -20 -20 -20 -20 -20 -20 -20 -20 -20 -20 -20 -20 -20 -20 -20 -20 -20 -20 -20 -20 -20 -20 -20 -20 -20 -20 -20 -20 -20 -20 -20 -20 -20 -20 -10 -4 1 -1 -2 -2 -5 -10 -16 -16 -14 -12 -14 -20 -17 -15 -20 -13 -10
-20 -20 -20 -20 -20 -20 -20 -20 -20 -20 -20 -20 -20 -20 -20 -20 -20 -20 -20 -20 -20 -20 -20 -20 -20 -20 -20 -20 -20 -20 -20 -20 -20 -20 -20 -20 -20 -20 -20 -20 -20 -20 -19 -18 -17 -15 -20 -20 -18 -12 -9 -18 -20 -20
-20 -20 -20 -20 -20 -20 -20 -20 -20 -20 -20 -20 -20 -20 -20 -20 -20 -20 -20 -20 -20 -20 -20 -20 -20 -20 -20 -20 -20 -20 -20 -20 -20 -20 -20 -20 -20 -20 -20 -20 -20 -20 -20 -20 -20 -20 -20 -20 -20 -20 -20 -20 -20 -20
-20 -20 -20 -20 -20 -20 -20 -20 -20 -20 -20 -20 -20 -20 -20 -20 -20 -20 -20 -20 -20 -20 -20 -20 -20 -20 -20 -20 -20 -20 -20 -20 -20 -20 -20 -20 -20 -20 -20 -20 -20 -20 -20 -20 -20 -20 -20 -20 -20 -20 -20 -20 -20 -20
-20 -20 -20 -20 -20 -20 -20 -20 -20 -20 -20 -20 -20 -20 -20 -20 -20 -20 -20 -20 -20 -20 -20 -20 -20 -20 -20 -20 -20 -20 -20 -20 -20 -20 -20 -20 -20 -20 -20 -20 -20 -20 -20 -20 -20 -20 -20 -20 -20 -20 -20 -20 -20 -20
-20 -20 -20 -20 -20 -20 -20 -20 -20 -20 -20 -20 -20 -20 -20 -20 -20 -20 -20 -20 -20 -20 -20 -20 -20 -20 -20 -20 -20 -20 -20 -20 -20 -20 -20 -20 -20 -20 -20 -20 -20 -20 -20 -20 -20 -20 -20 -20 -20 -20 -20 -20 -20 -20
-20 -20 -20 -20 -20 -20 -20 -20 -20 -20 -20 -20 -20 -20 -20 -20 -20 -20 -20 -20 -20 -20 -20 -20 -20 -20 -20 -20 -20 -20 -20 -20 -20 -20 -20 -20 -20 -20 -20 -20 -20 -20 -20 -20 -20 -20 -20 -20 -20 -20 -20 -20 -20 -20
-20 -20 -20 -20 -20 -20 -20 -20 -20 -20 -20 -20 -20 -20 -20 -20 -20 -20 -20 -20 -20 -20 -20 -20 -20 -20 -20 -20 -20 -20 -20 -20 -20 -20 -20 -20 -20 -20 -20 -20 -20 -20 -20 -20 -20 -20 -20 -20 -20 -20 -20 -20 -20 -20
-20 -20 -20 -20 -20 -20 -20 -20 -20 -20 -20 -20 -20 -20 -20 -20 -20 -20 -20 -20 -20 -20 -20 -20 -20 -20 -20 -20 -20 -20 -20 -20 -20 -20 -20 -20 -20 -20 -20 -20 -20 -20 -20 -20 -20 -20 -20 -20 -20 -20 -20 -20 -20 -20
-20 -20 -20 -20 -20 -20 -20 -20 -20 -20 -20 -20 -20 -20 -20 -20 -20 -20 -20 -20 -20 -20 -20 -20 -20 -20 -20 -20 -20 -20 -20 -20 -20 -20 -20 -20 -20 -20 -20 -20 -20 -20 -18 -19 -20 0 -20 -20 -20 -20 -20 -20 -20 -20
-20 -20 -20 -20 -20 -20 -20 -20 -20 -20 -20 -20 -20 -20 -20 -20 -20 -20 -20 -20 -20 -20 -20 -20 -20 -20 -20 -20 -20 -20 -20 -20 -20 -20 -20 -20 -20 -20 -20 -20 -20 -20 -20 -20 -20 -20 -11 -20 -20 -20 -20 -20 -20 -20
-20 -20 -20 -20 -20 -20 -20 -20 -20 -20 -20 -20 -20 -20 -20 -20 -20 -20 -20 -20 -20 -20 -20 -20 -20 -20 -20 -20 -20 -20 -20 -20 -20 -18 -7 -6 -20 -20 -20 -20 -20 -20 -20 -20 -20 -20 -20 -20 -20 -20 -20 -20 -20 -20
-20 -20 -20 -20 -20 -20 -20 -20 -20 -20 -20 -20 -20 -20 -20 -20 -20 -20 -20 -20 -20 -20 -20 -20 -20 -20 -20 -20 -20 -20 -20 -20 -20 -20 -20 -20 -20 -20 -20 -20 -20 -20 -20 -20 -20 -20 -20 -7 -12 -19 -20 -20 -20 -20
-20 -20 -20 -20 -20 -20 -20 -20 -20 -20 -20 -20 -20 -20 -20 -20 -20 -20 -20 -20 -20 -20 -20 -20 -20 -20 -20 -20 -20 -20 -20 -20 -20 -20 -20 -20 -20 -20 -20 -20 -20 -20 -20 -20 -20 -20 -20 -20 -2 -20 -20 -20 -20 -20
-20 -20 -20 -20 -20 -20 -20 -20 -20 -20 -20 -20 -20 -20 -20 -20 -20 -20 -20 -20 -20 -20 -20 -20 -20 -20 -20 -20 -20 -20 -20 -20 -20 -20 -20 -20 -20 -20 -20 -20 -20 -20 -20 -20 -20 -20 -20 -20 -20 -20 -20 -20 -20 -4
-20 -20 -20 -20 -20 -20 -20 -20 -20 -20 -20 -20 -20 -20 -20 -20 -20 -20 -20 -20 -20 -20 -20 -20 -20 -20 -20 -20 -20 -20 -20 -20 -20 -20 -20 -20 -20 -20 -20 -20 -20 -20 -20 -20 -20 -20 -20 -20 -20 -20 -20 -20 -3 -20
-20 -20 -20 -20 -20 -20 -20 -20 -20 -20 -20 -20 -20 -20 -20 -20 -20 -20 -20 -20 -20 -20 -20 -20 -20 -20 -20 -20 -20 -20 -20 -20 -20 -20 -20 -20 -20 -20 -20 -20 -20 -20 -20 -20 -20 -20 -20 -20 -20 -20 -20 -20 -20 -20
-20 -20 -20 -20 -20 -20 -20 -20 -20 -20 -20 -20 -20 -20 -20 -20 -20 -20 -20 -20 -20 -20 -20 -20 -20 -20 -20 -20 -20 -20 -20 -20 -20 -20 -20 -20 -20 -20 -20 -20 -20 3 0 -20 -20 -20 -20 -20 -20 -20 -20 -20 -20 -20
-20 -20 -20 -20 -20 -20 -20 -20 -20 -20 -20 -20 -20 -20 -20 -20 -20 -20 -20 -20 -20 -20 -20 -20 -20 -20 -20 -20 -20 -20 -20 -20 -20 -20 -20 -20 -20 -20 -20 -20 -20 -20 -20 -20 -2 5 -9 12 -17 -12 -20 -20 -20 -20
-20 -20 -20 -20 -20 -20 -20 -20 -20 -20 -20 -20 -20 -20 -20 -20 -20 -20 -20 -20 -20 -20 -20 -20 -20 -20 -20 -20 -20 -20 -20 -20 -20 -20 -20 -20 -20 -20 -20 -20 -20 -20 -20 -20 -20 -20 -11 -12 -20 -20 -20 -20 -20 -20
-20 -20 -20 -20 -20 -20 -20 -20 -20 -20 -20 -20 -20 -20 -20 -20 -20 -20 -20 -20 -20 -20 -20 -20 -20 -20 -20 -20 -20 -20 -20 -20 -20 -20 -20 -20 -20 -20 -20 -20 -20 -20 -20 -20 -20 -20 -20 -20 -20 -20 -20 -20 -20 -20
-20 -20 -20 -20 -20 -20 -20 -20 -20 -20 -20 -20 -20 -20 -20 -20 -20 -20 -20 -20 -20 -20 -20 -20 -20 -20 -20 -20 -20 -20 -0 -20 -20 -20 -20 -20 -19 1 -9 -20 -20 -20 -20 -20 -20 -20 -20 -20 -20 -20 -20 -20 -20 -20
-20 -20 -20 -20 -20 -20 -20 -20 -20 -20 -20 -20 -20 -20 -20 -20 -20 -20 -20 -20 -20 -20 -20 -20 -20 -20 -20 -20 -20 -20 -11 -20 -17 1 7 8 9 11 4 -20 -20 -20 -20 -20 -20 -20 -20 -20 -20 -20 -20 -20 -20 -20
Wind_Speed
25 24 24 25 25 26 24 26 33 13 13 14 11 12 14 14 21 11 2 9 4 4 3 3 6 14 9 13 10 7 5 4 6 7 6 5 3 7 4 8 10 13 11 8 7 9 16 6 2 11 1 4 6 5
24 24 26 26 26 27 27 26 37 17 6 10 10 9 12 18 9 7 2 1 6 6 5 7 12 11 7 10 14 10 6 7 6 5 4 4 2 2 6 9 1 8 9 9 11 7 4 7 5 5 6 6 5 5
22 24 23 24 24 24 26 27 28 36 25 17 8 4 9 13 12 9 4 2 6 4 4 6 6 7 13 8 6 8 3 7 4 2 4 3 4 5 6 9 4 1 9 3 6 5 7 9 8 12 12 11 9 10
22 22 21 22 22 21 23 25 26 26 28 26 23 24 25 22 22 15 6 4 3 6 6 3 6 6 14 13 2 1 1 5 5 3 3 3 4 4 5 4 3 5 9 5 6 5 5 9 10 9 9 10 11 9
19 20 19 21 20 18 19 22 25 27 28 22 18 17 23 23 21 12 8 7 8 3 6 4 2 10 13 13 11 5 2 4 4 4 4 5 3 3 3 6 7 7 6 3 1 3 3 4 6 10 10 11 10 9
17 19 18 20 19 13 13 17 20 22 23 27 30 28 16 7 5 3 4 5 11 6 6 4 3 8 15 14 13 11 6 4 1 3 2 5 5 5 7 6 4 7 5 6 3 5 3 4 9 10 8 9 7 8
15 16 17 18 19 16 13 13 14 15 17 17 18 22 30 30 13 10 2 8 16 4 5 5 3 7 13 8 5 5 5 4 4 4 5 4 7 9 6 6 6 7 4 8 8 2 3 10 5 9 8 9 8 6
13 14 15 15 16 14 13 11 12 13 14 13 11 13 14 13 12 7 9 20 7 8 7 5 4 5 12 6 6 6 5 3 8 4 5 5 5 6 9 6 7 8 4 11 9 9 5 5 7 8 8 8 8 8
11 13 13 13 15 16 12 11 10 11 12 10 6 7 6 10 6 3 12 12 7 8 7 6 4 4 9 6 4 4 4 5 3 5 5 5 5 10 4 5 7 8 7 7 8 6 7 7 6 7 8 9 7 8
8 10 12 12 14 17 15 12 11 10 10 8 8 7 6 3 14 10 11 9 12 9 9 4 1 3 5 5 5 4 4 4 4 5 4 7 5 6 4 5 5 6 6 6 8 11 11 10 9 9 8 6 6 7
5 7 10 10 12 14 18 18 12 6 12 6 5 2 4 11 6 7 7 9 5 8 5 1 2 1 4 3 2 3 1 2 5 4 5 4 4 2 3 3 3 4 4 5 2 5 6 7 9 10 9 8 7 8
3 5 9 10 11 13 15 18 13 7 2 4 6 3 5 9 7 11 2 5 9 1 5 3 3 1 3 2 4 5 3 4 3 2 6 4 3 1 0 1 2 3 4 8 7 6 5 6 7 8 8 9 8 8
6 6 8 11 13 13 13 12 12 11 5 5 8 9 8 7 15 9 6 6 5 5 4 5 4 1 5 5 4 5 8 2 1 7 4 1 0 2 3 2 3 5 5 6 8 8 8 11 9 7 10 9 10 8
9 8 8 9 11 13 16 13 9 6 8 8 7 11 7 7 4 0 3 4 4 0 3 1 2 3 2 6 1 8 2 4 6 6 1 2 4 5 3 3 2 7 6 6 7 6 8 9 10 10 6 8 9 9
12 11 10 12 10 10 12 15 15 8 7 8 8 6 7 3 1 3 3 2 3 1 3 4 3 4 5 6 4 3 9 5 3 1 2 4 5 4 4 4 5 6 6 5 4 5 8 9 9 11 10 7 7 9
14 11 6 14 17 13 9 11 9 6 8 8 12 6 2 5 6 5 3 3 2 1 1 3 3 6 5 3 8 3 6 1 4 3 4 3 4 5 5 5 8 7 7 6 6 5 8 7 8 9 7 8 9 10
11 3 3 9 11 18 21 8 7 12 8 9 5 2 3 4 3 3 1 4 1 3 2 3 7 2 0 6 5 3 3 4 4 6 4 4 6 7 7 7 8 8 7 8 7 7 7 7 7 5 9 11 9 11
4 5 7 5 5 8 7 8 8 9 10 4 6 4 2 1 2 4 4 4 3 2 3 2 3 8 4 3 3 4 3 4 4 4 6 6 5 7 7 8 9 9 10 10 10 8 4 6 7 7 9 10 10 11
8 8 8 11 9 8 7 8 7 8 4 1 1 2 2 1 1 2 2 6 2 2 5 5 8 3 2 1 3 4 3 3 6 7 7 6 6 8 9 8 8 9 8 7 8 7 6 8 7 7 8 8 9 10
21 23 19 18 8 7 9 6 4 8 4 2 3 4 2 1 3 3 8 8 5 5 8 6 1 2 3 4 4 4 4 4 3 7 8 7 6 8 6 8 7 8 8 8 6 14 7 8 5 6 8 10 10 10
13 10 18 11 8 11 8 2 7 3 3 4 2 2 0 3 4 5 4 4 6 4 2 2 3 4 4 4 3 3 4 2 3 4 8 8 6 5 7 7 7 6 7 7 8 9 11 7 8 9 9 11 11 12
3 11 5 9 8 7 8 3 6 2 5 2 3 3 4 3 3 3 2 6 2 2 3 2 3 3 3 4 4 4 5 3 5 5 11 10 6 7 7 6 6 6 6 7 7 8 8 8 9 10 10 10 13 10
8 8 7 9 11 9 3 3 7 5 6 1 3 5 4 3 2 1 4 2 2 3 3 3 4 4 5 5 3 5 4 3 5 5 6 5 6 6 6 6 4 6 7 7 6 7 8 14 12 12 9 10 10 10
13 10 9 7 8 2 3 8 3 5 5 6 4 3 4 2 3 5 2 3 3 1 1 3 1 3 3 2 2 3 4 2 5 6 4 4 5 6 4 5 5 5 6 7 7 8 8 8 14 10 10 11 11 11
13 12 9 9 4 8 8 7 7 7 3 3 4 3 3 3 4 3 1 4 2 2 2 3 2 2 2 3 4 4 4 2 5 8 8 4 5 5 5 5 5 6 5 5 7 8 9 10 10 10 11 11 13 12
10 6 7 1 5 6 2 5 4 2 2 4 1 2 3 4 5 2 3 3 2 2 3 2 2 3 3 3 4 6 5 4 5 5 7 2 3 4 5 6 7 7 3 4 6 9 11 11 12 14 13 15 20 15
8 5 4 1 2 2 4 2 2 4 5 3 3 4 4 5 3 5 3 2 2 3 3 2 3 3 4 6 5 5 6 5 5 8 10 9 7 6 6 6 9 6 6 9 9 9 11 13 13 13 12 12 10 8
3 3 4 5 4 2 4 3 3 2 2 2 1 5 2 4 3 2 4 3 3 1 2 3 3 4 4 5 5 6 6 4 7 9 8 6 5 6 6 6 7 18 9 7 9 8 9 11 12 12 9 7 7 7
4 3 3 5 4 5 2 3 2 1 1 2 2 2 2 2 1 2 2 2 1 1 3 3 3 1 4 3 4 4 4 2 5 8 8 7 7 5 2 6 7 7 6 6 15 15 14 9 10 3 5 6 6 5
5 2 4 2 4 2 3 2 2 3 2 2 2 2 2 2 2 1 1 1 2 3 3 3 4 2 4 3 5 6 3 3 4 3 4 7 8 10 10 9 8 7 5 6 7 7 14 7 7 5 6 6 6 5
2 3 4 3 1 3 3 3 3 2 2 1 1 2 3 3 4 2 2 2 2 1 3 3 3 2 3 4 3 4 6 2 5 7 8 9 11 11 9 8 4 4 5 5 5 5 5 6 5 6 6 7 9 8
4 3 2 2 3 3 3 3 1 1 3 3 3 1 4 3 3 3 3 3 1 2 5 1 3 5 4 5 5 6 14 8 6 6 11 10 11 10 2 3 2 2 3 4 3 4 5 5 5 6 6 7 8 8
3 2 2 2 4 5 3 3 5 5 3 2 3 1 2 2 3 4 1 4 4 3 4 4 5 5 7 8 7 7 9 6 10 17 19 19 19 15 2 2 2 1 1 2 3 3 4 5 3 5 7 7 8 8
Wind_Direction
347 353 355 351 354 354 357 356 358 319 279 274 269 249 238 261 276 178 165 209 165 141 51 24 134 159 149 170 181 156 120 192 154 171 177 184 193 212 168 161 170 173 176 191 202 210 250 24 333 182 212 68 63 43
346 346 349 355 353 357 0 16 3 9 297 278 254 262 272 265 175 133 121 23 73 62 75 62 80 44 354 167 174 176 163 161 157 151 177 148 161 124 147 215 266 195 190 183 190 202 68 25 58 17 348 60 19 34
348 347 348 354 353 2 5 8 25 21 42 39 17 274 155 102 89 76 82 67 85 96 58 37 12 354 13 360 307 167 244 160 192 154 134 185 195 134 180 228 99 22 4 145 122 75 55 26 35 36 31 46 38 33
345 349 351 357 359 16 14 24 26 36 33 43 58 63 76 79 78 70 59 358 69 91 98 42 356 26 317 325 207 55 12 62 106 88 138 177 181 165 209 161 145 353 336 6 79 88 114 56 29 12 22 27 31 31
345 349 353 2 7 30 28 37 40 43 45 46 37 59 84 86 90 86 76 48 22 79 119 129 137 8 347 345 30 63 138 119 135 160 180 184 142 124 73 92 45 358 6 356 27 11 316 61 18 17 34 17 17 25
347 348 354 358 10 23 34 35 37 42 41 49 49 46 36 26 65 61 51 49 16 7 95 84 129 360 356 349 17 31 27 53 120 136 118 69 57 344 80 78 31 23 58 24 353 323 357 150 60 25 26 9 19 32
347 347 356 358 355 12 14 43 41 30 29 35 42 56 61 61 66 62 75 296 312 338 83 98 57 8 348 4 7 350 7 50 23 49 50 66 30 37 56 69 7 7 58 25 9 6 58 35 15 11 12 7 5 27
346 353 348 357 357 352 350 6 5 3 11 15 34 53 57 73 81 51 20 16 48 84 48 67 357 19 12 358 347 0 353 38 27 69 50 50 36 54 66 34 27 16 19 23 15 51 45 40 26 15 6 6 15 14
339 349 353 354 353 352 343 335 338 342 352 7 13 78 35 31 33 283 357 37 46 73 90 61 16 333 349 10 339 331 341 61 29 51 48 63 34 50 37 27 29 25 35 345 346 36 24 30 8 3 359 358 357 351
351 354 358 3 3 5 1 348 334 341 356 17 38 42 22 304 311 8 9 23 24 7 33 68 272 325 335 344 1 351 5 39 57 55 84 63 81 87 44 47 45 36 29 3 6 6 353 355 351 345 342 327 321 315
11 11 10 10 12 8 11 15 9 15 34 37 47 82 245 337 46 35 45 49 338 35 19 229 120 289 339 50 310 30 177 347 70 355 80 70 84 81 56 60 44 41 30 25 346 320 323 317 320 323 322 318 310 310
81 48 32 25 21 18 18 21 23 47 82 123 132 79 27 30 34 69 23 349 45 121 339 27 316 166 305 75 75 347 89 34 74 5 69 74 115 166 176 326 358 20 2 353 350 324 323 320 315 308 308 308 305 298
120 89 51 35 30 29 26 32 57 94 76 37 46 45 35 323 39 56 7 344 24 345 335 342 340 37 341 40 55 46 59 76 44 44 73 127 116 336 291 347 333 327 325 319 320 319 321 326 324 306 308 306 303 302
117 99 61 41 37 36 35 32 37 56 63 64 58 31 71 5 41 221 172 200 254 104 337 39 338 61 309 39 244 71 269 51 54 56 171 260 256 269 303 274 332 305 318 306 301 295 304 307 307 305 276 279 293 295
112 91 58 30 32 34 43 46 49 48 65 63 50 53 50 234 297 251 243 13 316 226 32 6 20 73 354 61 41 68 34 42 68 185 243 269 272 251 271 272 280 283 285 285 276 288 291 295 296 296 296 283 269 278
112 79 54 46 39 38 54 45 34 62 53 68 39 56 355 56 345 6 2 312 271 17 36 49 63 47 18 83 47 25 84 112 249 228 249 284 274 263 263 267 283 269 271 273 281 263 274 276 270 275 283 273 269 265
72 43 51 52 56 48 42 69 51 48 67 50 15 41 70 97 184 265 211 283 169 66 53 77 54 247 290 44 34 42 141 235 253 296 279 256 270 283 279 285 284 276 264 260 251 256 251 260 275 296 291 292 276 272
45 319 55 46 73 47 36 42 75 67 59 2 67 322 24 56 327 342 319 314 34 44 58 103 100 43 63 80 307 255 265 256 244 262 292 293 276 275 271 275 288 283 283 282 275 264 247 276 276 273 276 279 283 284
67 36 44 59 85 88 66 28 55 86 68 37 41 2 70 35 276 275 312 8 45 23 78 44 57 61 328 232 216 288 265 236 296 305 297 283 269 273 283 287 280 275 271 268 280 281 270 263 261 273 282 288 291 287
56 52 50 49 64 73 61 22 43 86 99 221 53 20 87 79 290 3 18 13 22 48 38 52 146 224 201 250 213 235 253 254 271 299 304 310 301 296 318 313 309 310 308 308 280 294 298 284 291 293 286 275 280 291
36 356 25 39 48 66 88 40 50 116 142 94 257 67 96 11 28 11 11 346 50 63 23 219 226 253 254 257 239 234 265 233 241 262 294 300 327 335 317 322 320 315 317 314 308 307 325 301 297 293 286 281 283 280
309 22 41 21 67 52 70 346 112 162 73 163 52 42 38 35 350 339 280 49 65 253 196 202 249 261 296 291 270 217 248 263 261 267 316 313 314 313 313 309 313 310 305 297 298 298 298 297 291 277 275 284 293 298
36 41 35 27 57 52 304 43 69 7 90 290 27 46 10 1 277 358 60 209 244 232 213 210 248 240 243 279 318 299 270 256 292 292 294 288 289 290 293 302 292 294 297 293 291 291 291 297 311 303 294 308 303 301
38 47 42 53 41 34 9 15 34 48 50 34 53 33 351 302 328 48 65 266 243 264 329 290 308 312 312 326 272 275 292 240 290 290 270 262 282 279 264 276 276 268 262 274 284 287 292 296 305 306 301 304 304 299
60 351 54 5 351 44 30 12 1 40 40 349 72 3 327 8 56 41 262 272 295 274 271 290 285 233 240 270 284 283 279 264 308 306 299 248 259 282 287 266 256 254 260 263 279 291 297 300 299 299 303 304 294 304
65 321 64 310 335 65 337 26 21 350 48 36 351 273 32 78 58 273 250 246 251 240 263 268 271 295 268 221 282 308 308 308 309 285 284 242 246 251 271 288 302 301 223 235 273 288 293 296 297 303 305 308 319 330
45 337 331 17 126 104 50 26 47 75 45 23 308 10 56 47 291 255 275 233 225 235 220 230 211 220 250 287 285 283 292 293 264 274 289 289 276 249 236 256 278 270 276 273 271 267 277 288 293 297 300 305 306 314
160 47 61 311 38 9 114 53 53 28 299 279 73 29 116 187 253 243 216 244 215 272 277 265 239 232 249 268 281 294 296 295 296 289 276 265 255 256 238 245 250 286 311 306 290 287 275 274 282 289 301 315 321 336
39 328 82 18 12 38 68 135 183 235 174 113 116 290 269 231 223 218 237 225 130 63 327 316 304 315 287 283 270 263 262 277 353 348 345 320 319 305 267 302 294 291 290 286 306 323 311 330 347 35 2 329 324 334
320 9 79 39 72 360 262 182 249 258 217 198 255 301 279 272 246 190 229 228 281 293 255 257 284 316 293 313 307 309 266 207 187 211 273 293 288 298 302 299 296 302 304 299 303 312 332 6 346 349 355 351 347 356
329 49 63 49 122 252 241 300 298 272 11 333 338 178 250 298 304 239 215 210 216 316 313 294 295 244 267 283 270 301 307 232 231 243 257 271 279 284 284 274 281 296 309 315 320 324 332 333 338 339 344 349 341 357
13 64 102 38 310 294 17 42 339 2 326 10 295 353 336 18 302 280 222 144 226 275 281 257 257 283 226 246 247 237 256 272 277 275 282 281 281 279 183 250 259 291 313 323 324 321 325 334 337 347 341 333 329 325
45 47 44 51 11 0 332 38 14 342 360 339 292 250 222 189 257 275 238 213 225 243 268 266 261 261 263 256 249 258 270 255 268 293 318 315 330 334 82 268 211 192 354 338 336 338 344 342 327 331 333 328 321 317